Time,TemperatureF,DewpointF,PressureIn,WindDirection,WindDirectionDegrees,WindSpeedMPH,WindSpeedGustMPH,Humidity,HourlyPrecipIn,Conditions,Clouds,dailyrainin,SoftwareType,DateUTC
2013-11-15 00:14:00,-999.0,-99.9,30.23,North,-999,-999.0,-999.0,-999,-99.99,,,0.00,weatherlink.com 1.10,2013-11-15 05:14:00,
2013-11-15 00:29:00,-999.0,-99.9,30.22,North,-999,-999.0,-999.0,-999,-99.99,,,0.00,weatherlink.com 1.10,2013-11-15 05:29:00,
2013-11-15 00:44:00,-999.0,-99.9,30.21,North,-999,-999.0,-999.0,-999,-99.99,,,0.00,weatherlink.com 1.10,2013-11-15 05:44:00,
2013-11-15 00:59:00,-999.0,-99.9,30.21,North,-999,-999.0,-999.0,-999,-99.99,,,0.00,weatherlink.com 1.10,2013-11-15 05:59:00,
2013-11-15 01:14:00,-999.0,-99.9,30.21,North,-999,-999.0,-999.0,-999,-99.99,,,0.00,weatherlink.com 1.10,2013-11-15 06:14:00,
2013-11-15 01:29:00,-999.0,-99.9,30.21,North,-999,-999.0,-999.0,-999,-99.99,,,0.00,weatherlink.com 1.10,2013-11-15 06:29:00,
2013-11-15 01:44:00,-999.0,-99.9,30.21,North,-999,-999.0,-999.0,-999,-99.99,,,0.00,weatherlink.com 1.10,2013-11-15 06:44:00,
2013-11-15 02:06:00,-999.0,-99.9,30.21,North,-999,-999.0,-999.0,-999,-99.99,,,0.00,weatherlink.com 1.10,2013-11-15 07:06:00,
2013-11-15 02:14:00,-999.0,-99.9,30.22,North,-999,-999.0,-999.0,-999,-99.99,,,0.00,weatherlink.com 1.10,2013-11-15 07:14:00,
2013-11-15 02:29:00,-999.0,-99.9,30.21,North,-999,-999.0,-999.0,-999,-99.99,,,0.00,weatherlink.com 1.10,2013-11-15 07:29:00,
2013-11-15 02:44:00,-999.0,-99.9,30.21,North,-999,-999.0,-999.0,-999,-99.99,,,0.00,weatherlink.com 1.10,2013-11-15 07:44:00,
2013-11-15 02:59:00,-999.0,-99.9,30.21,North,-999,-999.0,-999.0,-999,-99.99,,,0.00,weatherlink.com 1.10,2013-11-15 07:59:00,
2013-11-15 03:14:00,-999.0,-99.9,30.21,North,-999,-999.0,-999.0,-999,-99.99,,,0.00,weatherlink.com 1.10,2013-11-15 08:14:00,
2013-11-15 03:29:00,-999.0,-99.9,30.21,North,-999,-999.0,-999.0,-999,-99.99,,,0.00,weatherlink.com 1.10,2013-11-15 08:29:00,
2013-11-15 03:44:00,-999.0,-99.9,30.22,North,-999,-999.0,-999.0,-999,-99.99,,,0.00,weatherlink.com 1.10,2013-11-15 08:44:00,
2013-11-15 03:59:00,-999.0,-99.9,30.21,North,-999,-999.0,-999.0,-999,-99.99,,,0.00,weatherlink.com 1.10,2013-11-15 08:59:00,
2013-11-15 04:14:00,-999.0,-99.9,30.21,North,-999,-999.0,-999.0,-999,-99.99,,,0.00,weatherlink.com 1.10,2013-11-15 09:14:00,
2013-11-15 04:29:00,-999.0,-99.9,30.22,North,-999,-999.0,-999.0,-999,-99.99,,,0.00,weatherlink.com 1.10,2013-11-15 09:29:00,
2013-11-15 04:44:00,-999.0,-99.9,30.22,North,-999,-999.0,-999.0,-999,-99.99,,,0.00,weatherlink.com 1.10,2013-11-15 09:44:00,
2013-11-15 04:59:00,-999.0,-99.9,30.21,North,-999,-999.0,-999.0,-999,-99.99,,,0.00,weatherlink.com 1.10,2013-11-15 09:59:00,
2013-11-15 05:14:00,-999.0,-99.9,30.21,North,-999,-999.0,-999.0,-999,-99.99,,,0.00,weatherlink.com 1.10,2013-11-15 10:14:00,
2013-11-15 05:29:00,-999.0,-99.9,30.22,North,-999,-999.0,-999.0,-999,-99.99,,,0.00,weatherlink.com 1.10,2013-11-15 10:29:00,
2013-11-15 05:44:00,-999.0,-99.9,30.23,North,-999,-999.0,-999.0,-999,-99.99,,,0.00,weatherlink.com 1.10,2013-11-15 10:44:00,
2013-11-15 05:59:00,-999.0,-99.9,30.23,North,-999,-999.0,-999.0,-999,-99.99,,,0.00,weatherlink.com 1.10,2013-11-15 10:59:00,
2013-11-15 06:14:00,-999.0,-99.9,30.23,North,-999,-999.0,-999.0,-999,-99.99,,,0.00,weatherlink.com 1.10,2013-11-15 11:14:00,
2013-11-15 06:29:00,-999.0,-99.9,30.23,North,-999,-999.0,-999.0,-999,-99.99,,,0.00,weatherlink.com 1.10,2013-11-15 11:29:00,
2013-11-15 06:44:00,-999.0,-99.9,30.24,North,-999,-999.0,-999.0,-999,-99.99,,,0.00,weatherlink.com 1.10,2013-11-15 11:44:00,
2013-11-15 06:59:00,-999.0,-99.9,30.24,North,-999,-999.0,-999.0,-999,-99.99,,,0.00,weatherlink.com 1.10,2013-11-15 11:59:00,
2013-11-15 07:14:00,41.9,34.0,30.25,SW,227,5.0,-999.0,74,-99.99,,,0.00,weatherlink.com 1.10,2013-11-15 12:14:00,
2013-11-15 07:35:00,42.9,35.0,30.25,SW,229,5.0,-999.0,73,-99.99,,,0.00,weatherlink.com 1.10,2013-11-15 12:35:00,
2013-11-15 07:44:00,43.8,35.0,30.25,SW,229,0.0,-999.0,72,-99.99,,,0.00,weatherlink.com 1.10,2013-11-15 12:44:00,
2013-11-15 07:59:00,44.3,35.0,30.26,SW,232,7.0,-999.0,71,-99.99,,,0.00,weatherlink.com 1.10,2013-11-15 12:59:00,
2013-11-15 08:14:00,45.1,36.0,30.25,SW,229,5.0,-999.0,70,-99.99,,,0.00,weatherlink.com 1.10,2013-11-15 13:14:00,
2013-11-15 08:29:00,45.9,35.0,30.25,SW,234,8.0,-999.0,67,-99.99,,,0.00,weatherlink.com 1.10,2013-11-15 13:29:00,
2013-11-15 08:44:00,47.0,36.0,30.24,WSW,242,4.0,-999.0,65,-99.99,,,0.00,weatherlink.com 1.10,2013-11-15 13:44:00,
2013-11-15 08:59:00,48.4,35.0,30.24,West,261,11.0,-999.0,60,-99.99,,,0.00,weatherlink.com 1.10,2013-11-15 13:59:00,
2013-11-15 09:14:00,49.2,35.0,30.25,WSW,248,3.0,-999.0,58,-99.99,,,0.00,weatherlink.com 1.10,2013-11-15 14:14:00,
2013-11-15 09:29:00,49.6,35.0,30.25,West,259,6.0,-999.0,57,-99.99,,,0.00,weatherlink.com 1.10,2013-11-15 14:29:00,
2013-11-15 09:44:00,50.1,34.0,30.25,WSW,240,9.0,-999.0,55,-99.99,,,0.00,weatherlink.com 1.10,2013-11-15 14:44:00,
2013-11-15 09:59:00,51.1,35.0,30.25,WSW,238,0.0,-999.0,54,-99.99,,,0.00,weatherlink.com 1.10,2013-11-15 14:59:00,
2013-11-15 10:14:00,52.6,35.0,30.24,West,265,6.0,-999.0,51,-99.99,,,0.00,weatherlink.com 1.10,2013-11-15 15:14:00,
2013-11-15 10:29:00,53.5,35.0,30.24,SW,235,9.0,-999.0,50,-99.99,,,0.00,weatherlink.com 1.10,2013-11-15 15:29:00,
2013-11-15 10:44:00,53.4,35.0,30.23,WSW,254,0.0,-999.0,51,-99.99,,,0.00,weatherlink.com 1.10,2013-11-15 15:44:00,
2013-11-15 10:59:00,54.1,36.0,30.23,SW,225,9.0,-999.0,50,-99.99,,,0.00,weatherlink.com 1.10,2013-11-15 15:59:00,
2013-11-15 11:14:00,55.5,35.0,30.23,SW,229,6.0,-999.0,47,-99.99,,,0.00,weatherlink.com 1.10,2013-11-15 16:14:00,
2013-11-15 11:29:00,57.3,34.0,30.21,West,261,7.0,-999.0,42,-99.99,,,0.00,weatherlink.com 1.10,2013-11-15 16:29:00,
2013-11-15 11:44:00,58.0,35.0,30.21,SW,236,5.0,-999.0,43,-99.99,,,0.00,weatherlink.com 1.10,2013-11-15 16:44:00,
2013-11-15 11:59:00,57.7,35.0,30.21,WSW,255,8.0,-999.0,42,-99.99,,,0.00,weatherlink.com 1.10,2013-11-15 16:59:00,
2013-11-15 12:14:00,57.1,35.0,30.20,WSW,246,4.0,-999.0,43,-99.99,,,0.00,weatherlink.com 1.10,2013-11-15 17:14:00,
2013-11-15 12:29:00,58.4,35.0,30.19,WSW,247,4.0,-999.0,42,-99.99,,,0.00,weatherlink.com 1.10,2013-11-15 17:29:00,
2013-11-15 12:44:00,59.1,35.0,30.19,WNW,289,4.0,-999.0,40,-99.99,,,0.00,weatherlink.com 1.10,2013-11-15 17:44:00,
2013-11-15 12:59:00,60.5,34.0,30.18,West,273,3.0,-999.0,37,-99.99,,,0.00,weatherlink.com 1.10,2013-11-15 17:59:00,
2013-11-15 13:14:00,60.8,34.0,30.18,WSW,246,2.0,-999.0,37,-99.99,,,0.00,weatherlink.com 1.10,2013-11-15 18:14:00,
2013-11-15 13:29:00,60.9,34.0,30.18,WSW,245,0.0,-999.0,36,-99.99,,,0.00,weatherlink.com 1.10,2013-11-15 18:29:00,
2013-11-15 13:44:00,60.5,33.0,30.18,WSW,255,0.0,-999.0,36,-99.99,,,0.00,weatherlink.com 1.10,2013-11-15 18:44:00,
2013-11-15 13:59:00,59.1,33.0,30.17,WSW,257,3.0,-999.0,37,-99.99,,,0.00,weatherlink.com 1.10,2013-11-15 18:59:00,
2013-11-15 14:14:00,58.4,34.0,30.17,WSW,256,0.0,-999.0,40,-99.99,,,0.00,weatherlink.com 1.10,2013-11-15 19:14:00,
2013-11-15 14:29:00,58.0,35.0,30.17,WSW,250,7.0,-999.0,42,-99.99,,,0.00,weatherlink.com 1.10,2013-11-15 19:29:00,
2013-11-15 14:44:00,56.9,34.0,30.17,WSW,238,6.0,-999.0,43,-99.99,,,0.00,weatherlink.com 1.10,2013-11-15 19:44:00,
2013-11-15 14:59:00,56.6,34.0,30.17,WSW,241,1.0,-999.0,43,-99.99,,,0.00,weatherlink.com 1.10,2013-11-15 19:59:00,
2013-11-15 15:14:00,56.5,35.0,30.17,WSW,243,4.0,-999.0,44,-99.99,,,0.00,weatherlink.com 1.10,2013-11-15 20:14:00,
2013-11-15 15:29:00,56.3,34.0,30.17,WSW,249,0.0,-999.0,43,-99.99,,,0.00,weatherlink.com 1.10,2013-11-15 20:29:00,
2013-11-15 15:44:00,55.6,34.0,30.17,WSW,248,5.0,-999.0,45,-99.99,,,0.00,weatherlink.com 1.10,2013-11-15 20:44:00,
2013-11-15 15:59:00,54.7,35.0,30.17,WSW,248,4.0,-999.0,47,-99.99,,,0.00,weatherlink.com 1.10,2013-11-15 20:59:00,
2013-11-15 16:14:00,-999.0,-99.9,30.18,North,-999,-999.0,-999.0,-999,-99.99,,,0.00,weatherlink.com 1.10,2013-11-15 21:14:00,
2013-11-15 16:29:00,-999.0,-99.9,30.19,North,-999,-999.0,-999.0,-999,-99.99,,,0.00,weatherlink.com 1.10,2013-11-15 21:29:00,
2013-11-15 16:44:00,-999.0,-99.9,30.18,North,-999,-999.0,-999.0,-999,-99.99,,,0.00,weatherlink.com 1.10,2013-11-15 21:44:00,
2013-11-15 16:59:00,-999.0,-99.9,30.19,North,-999,-999.0,-999.0,-999,-99.99,,,0.00,weatherlink.com 1.10,2013-11-15 21:59:00,
2013-11-15 17:14:00,-999.0,-99.9,30.19,North,-999,-999.0,-999.0,-999,-99.99,,,0.00,weatherlink.com 1.10,2013-11-15 22:14:00,
2013-11-15 17:29:00,-999.0,-99.9,30.20,North,-999,-999.0,-999.0,-999,-99.99,,,0.00,weatherlink.com 1.10,2013-11-15 22:29:00,
2013-11-15 17:44:00,-999.0,-99.9,30.20,North,-999,-999.0,-999.0,-999,-99.99,,,0.00,weatherlink.com 1.10,2013-11-15 22:44:00,
2013-11-15 17:59:00,-999.0,-99.9,30.20,North,-999,-999.0,-999.0,-999,-99.99,,,0.00,weatherlink.com 1.10,2013-11-15 22:59:00,
2013-11-15 18:14:00,-999.0,-99.9,30.21,North,-999,-999.0,-999.0,-999,-99.99,,,0.00,weatherlink.com 1.10,2013-11-15 23:14:00,
2013-11-15 18:29:00,-999.0,-99.9,30.20,North,-999,-999.0,-999.0,-999,-99.99,,,0.00,weatherlink.com 1.10,2013-11-15 23:29:00,
2013-11-15 18:44:00,-999.0,-99.9,30.19,North,-999,-999.0,-999.0,-999,-99.99,,,0.00,weatherlink.com 1.10,2013-11-15 23:44:00,
2013-11-15 19:00:00,-999.0,-99.9,30.18,North,-999,-999.0,-999.0,-999,-99.99,,,0.00,weatherlink.com 1.10,2013-11-16 00:00:00,
2013-11-15 19:14:00,-999.0,-99.9,30.19,North,-999,-999.0,-999.0,-999,-99.99,,,0.00,weatherlink.com 1.10,2013-11-16 00:14:00,
2013-11-15 19:30:00,-999.0,-99.9,30.20,North,-999,-999.0,-999.0,-999,-99.99,,,0.00,weatherlink.com 1.10,2013-11-16 00:30:00,
2013-11-15 19:44:00,-999.0,-99.9,30.20,North,-999,-999.0,-999.0,-999,-99.99,,,0.00,weatherlink.com 1.10,2013-11-16 00:44:00,
2013-11-15 20:00:00,-999.0,-99.9,30.20,North,-999,-999.0,-999.0,-999,-99.99,,,0.00,weatherlink.com 1.10,2013-11-16 01:00:00,
2013-11-15 20:15:00,-999.0,-99.9,30.20,North,-999,-999.0,-999.0,-999,-99.99,,,0.00,weatherlink.com 1.10,2013-11-16 01:15:00,
2013-11-15 20:30:00,-999.0,-99.9,30.20,North,-999,-999.0,-999.0,-999,-99.99,,,0.00,weatherlink.com 1.10,2013-11-16 01:30:00,
2013-11-15 20:45:00,-999.0,-99.9,30.21,North,-999,-999.0,-999.0,-999,-99.99,,,0.00,weatherlink.com 1.10,2013-11-16 01:45:00,
2013-11-15 21:00:00,-999.0,-99.9,30.21,North,-999,-999.0,-999.0,-999,-99.99,,,0.00,weatherlink.com 1.10,2013-11-16 02:00:00,
2013-11-15 21:15:00,-999.0,-99.9,30.21,North,-999,-999.0,-999.0,-999,-99.99,,,0.00,weatherlink.com 1.10,2013-11-16 02:15:00,
2013-11-15 21:30:00,-999.0,-99.9,30.21,North,-999,-999.0,-999.0,-999,-99.99,,,0.00,weatherlink.com 1.10,2013-11-16 02:30:00,
2013-11-15 21:45:00,-999.0,-99.9,30.21,North,-999,-999.0,-999.0,-999,-99.99,,,0.00,weatherlink.com 1.10,2013-11-16 02:45:00,
2013-11-15 22:00:00,-999.0,-99.9,30.21,North,-999,-999.0,-999.0,-999,-99.99,,,0.00,weatherlink.com 1.10,2013-11-16 03:00:00,
2013-11-15 22:15:00,-999.0,-99.9,30.21,North,-999,-999.0,-999.0,-999,-99.99,,,0.00,weatherlink.com 1.10,2013-11-16 03:15:00,
2013-11-15 22:30:00,-999.0,-99.9,30.21,North,-999,-999.0,-999.0,-999,-99.99,,,0.00,weatherlink.com 1.10,2013-11-16 03:30:00,
2013-11-15 22:45:00,-999.0,-99.9,30.22,North,-999,-999.0,-999.0,-999,-99.99,,,0.00,weatherlink.com 1.10,2013-11-16 03:45:00,
2013-11-15 23:00:00,-999.0,-99.9,30.23,North,-999,-999.0,-999.0,-999,-99.99,,,0.00,weatherlink.com 1.10,2013-11-16 04:00:00,
2013-11-15 23:15:00,-999.0,-99.9,30.23,North,-999,-999.0,-999.0,-999,-99.99,,,0.00,weatherlink.com 1.10,2013-11-16 04:15:00,
2013-11-15 23:30:00,-999.0,-99.9,30.23,North,-999,-999.0,-999.0,-999,-99.99,,,0.00,weatherlink.com 1.10,2013-11-16 04:30:00,
2013-11-15 23:45:00,-999.0,-99.9,30.23,North,-999,-999.0,-999.0,-999,-99.99,,,0.00,weatherlink.com 1.10,2013-11-16 04:45:00,